�������l�o���
Date,Time,MP-1(��Sv/h),MP-2(��Sv/h),MP-3(��Sv/h),MP-4(��Sv/h),MP-5(��Sv/h),MP-6(��Sv/h),MP-7(��Sv/h),MP-8(��Sv/h),����,����(m/s),���J
2022/10/08,00:00,0.544,0.770,0.506,0.967,0.656,0.331,0.564,0.538,�k�k��,8.4,�L
2022/10/08,00:10,0.541,0.766,0.507,0.962,0.654,0.330,0.564,0.537,�k�k��,8.2,�L
2022/10/08,00:20,0.541,0.769,0.504,0.963,0.654,0.332,0.564,0.535,�k�k��,7.3,�L
2022/10/08,00:30,0.545,0.771,0.506,0.964,0.657,0.332,0.562,0.538,�k�k��,7.2,�L
2022/10/08,00:40,0.544,0.775,0.507,0.966,0.657,0.332,0.563,0.539,�k��,7.9,�L
2022/10/08,00:50,0.546,0.778,0.506,0.970,0.658,0.330,0.563,0.539,�k�k��,7.1,��
2022/10/08,01:00,0.545,0.779,0.508,0.970,0.661,0.330,0.563,0.540,�k�k��,7.8,��
2022/10/08,01:10,0.547,0.780,0.506,0.973,0.661,0.330,0.565,0.541,�k�k��,7.6,��
2022/10/08,01:20,0.545,0.781,0.506,0.973,0.661,0.330,0.566,0.541,�k�k��,7.4,�L
2022/10/08,01:30,0.547,0.782,0.505,0.973,0.662,0.329,0.566,0.542,�k�k��,7.0,�L
2022/10/08,01:40,0.547,0.781,0.507,0.975,0.661,0.329,0.564,0.542,�k��,6.2,�L
2022/10/08,01:50,0.545,0.781,0.507,0.974,0.663,0.328,0.566,0.541,�k��,6.9,��
2022/10/08,02:00,0.548,0.782,0.506,0.977,0.663,0.330,0.565,0.542,�k��,6.1,��
2022/10/08,02:10,0.546,0.784,0.506,0.977,0.662,0.329,0.568,0.542,�k��,6.0,��
2022/10/08,02:20,0.547,0.781,0.506,0.979,0.664,0.329,0.566,0.542,�k��,5.7,��
2022/10/08,02:30,0.545,0.781,0.505,0.977,0.664,0.329,0.568,0.542,�k��,6.2,��
2022/10/08,02:40,0.546,0.782,0.505,0.979,0.665,0.328,0.568,0.543,�k��,6.2,��
2022/10/08,02:50,0.548,0.784,0.507,0.979,0.663,0.328,0.566,0.543,�k��,6.8,��
2022/10/08,03:00,0.546,0.783,0.506,0.981,0.664,0.328,0.568,0.544,�k��,6.8,��
2022/10/08,03:10,0.547,0.785,0.507,0.980,0.666,0.329,0.568,0.542,�k��,5.7,��
2022/10/08,03:20,0.547,0.784,0.506,0.982,0.667,0.329,0.568,0.543,�k��,5.6,��
2022/10/08,03:30,0.546,0.784,0.504,0.980,0.667,0.329,0.566,0.543,�k��,4.3,��
2022/10/08,03:40,0.548,0.783,0.507,0.981,0.667,0.327,0.569,0.543,�k��,4.8,��
2022/10/08,03:50,0.546,0.784,0.506,0.982,0.667,0.330,0.569,0.543,�k�k��,6.5,��
2022/10/08,04:00,0.546,0.783,0.504,0.984,0.668,0.328,0.570,0.542,�k�k��,7.1,��
2022/10/08,04:10,0.545,0.784,0.507,0.986,0.669,0.328,0.569,0.543,�k�k��,6.0,��
2022/10/08,04:20,0.547,0.786,0.506,0.985,0.669,0.328,0.569,0.543,�k��,4.8,��
2022/10/08,04:30,0.548,0.787,0.509,0.985,0.668,0.328,0.569,0.543,�k�k��,6.1,��
2022/10/08,04:40,0.547,0.786,0.506,0.986,0.670,0.329,0.571,0.544,�k�k��,5.7,��
2022/10/08,04:50,0.548,0.786,0.507,0.986,0.670,0.331,0.569,0.544,�k�k��,5.9,��
2022/10/08,05:00,0.547,0.787,0.506,0.987,0.669,0.329,0.570,0.543,�k�k��,7.0,��
2022/10/08,05:10,0.548,0.787,0.508,0.986,0.672,0.328,0.572,0.543,�k�k��,6.5,��
2022/10/08,05:20,0.549,0.786,0.508,0.985,0.670,0.327,0.571,0.544,�k�k��,7.7,��
2022/10/08,05:30,0.549,0.789,0.507,0.986,0.672,0.330,0.570,0.543,�k�k��,6.7,��
2022/10/08,05:40,0.548,0.787,0.507,0.987,0.673,0.328,0.571,0.545,�k��,7.0,��
2022/10/08,05:50,0.547,0.789,0.507,0.989,0.672,0.328,0.569,0.544,�k��,6.9,��
2022/10/08,06:00,0.549,0.786,0.507,0.989,0.672,0.328,0.569,0.544,�k��,6.0,��
2022/10/08,06:10,0.548,0.789,0.508,0.989,0.673,0.330,0.569,0.543,�k��,7.2,��
2022/10/08,06:20,0.548,0.788,0.507,0.990,0.672,0.329,0.569,0.544,�k��,6.5,��
2022/10/08,06:30,0.548,0.787,0.508,0.988,0.673,0.329,0.571,0.545,�k��,6.6,��
2022/10/08,06:40,0.549,0.788,0.508,0.989,0.675,0.329,0.570,0.544,�k��,6.8,��
2022/10/08,06:50,0.549,0.790,0.508,0.990,0.673,0.329,0.569,0.544,�k��,6.1,��
2022/10/08,07:00,0.549,0.789,0.508,0.990,0.673,0.330,0.571,0.544,�k�k��,5.4,�L
2022/10/08,07:10,0.549,0.788,0.510,0.989,0.673,0.330,0.572,0.545,�k�k��,5.5,��
2022/10/08,07:20,0.549,0.791,0.510,0.990,0.675,0.328,0.570,0.544,�k�k��,5.9,��
2022/10/08,07:30,0.549,0.789,0.507,0.988,0.674,0.329,0.570,0.544,�k,4.8,��
2022/10/08,07:40,0.549,0.788,0.509,0.991,0.676,0.328,0.570,0.543,�k,3.8,��
2022/10/08,07:50,0.550,0.790,0.508,0.991,0.677,0.330,0.571,0.544,�k,3.9,��
2022/10/08,08:00,0.549,0.790,0.510,0.989,0.674,0.331,0.569,0.545,�k�k��,4.1,��
2022/10/08,08:10,0.549,0.789,0.510,0.993,0.677,0.330,0.570,0.544,�k�k��,5.3,��
2022/10/08,08:20,0.550,0.790,0.508,0.991,0.677,0.328,0.571,0.545,�k�k��,4.6,��
2022/10/08,08:30,0.549,0.790,0.510,0.990,0.677,0.330,0.571,0.545,�k�k��,4.2,��
2022/10/08,08:40,0.550,0.792,0.510,0.990,0.677,0.329,0.570,0.545,�k,4.0,��
2022/10/08,08:50,0.550,0.790,0.509,0.991,0.675,0.328,0.571,0.544,�k�k��,4.3,��
2022/10/08,09:00,0.550,0.791,0.511,0.992,0.678,0.330,0.572,0.544,�k�k��,4.5,��
2022/10/08,09:10,0.553,0.792,0.512,0.992,0.678,0.330,0.571,0.544,�k�k��,3.8,��
2022/10/08,09:20,0.550,0.792,0.512,0.994,0.678,0.329,0.571,0.545,�k�k��,3.3,��
2022/10/08,09:30,0.552,0.790,0.512,0.992,0.677,0.329,0.574,0.544,�k�k��,3.4,��
2022/10/08,09:40,0.551,0.790,0.511,0.992,0.678,0.330,0.572,0.545,�k��,3.2,��
2022/10/08,09:50,0.551,0.790,0.513,0.993,0.678,0.329,0.572,0.545,�k��,3.8,��
2022/10/08,10:00,0.550,0.793,0.511,0.993,0.679,0.329,0.573,0.543,�k�k��,3.3,��
2022/10/08,10:10,0.552,0.793,0.510,0.994,0.680,0.329,0.572,0.543,�k,3.8,��
2022/10/08,10:20,0.551,0.792,0.511,0.994,0.680,0.329,0.572,0.543,�k,4.7,��
2022/10/08,10:30,0.551,0.792,0.510,0.994,0.679,0.329,0.573,0.542,�k,4.7,��
2022/10/08,10:40,0.551,0.791,0.511,0.995,0.680,0.329,0.573,0.544,�k,3.0,��
2022/10/08,10:50,0.552,0.792,0.512,0.992,0.682,0.329,0.573,0.544,�k�k��,3.0,��
2022/10/08,11:00,0.554,0.794,0.514,0.996,0.680,0.329,0.574,0.543,�k�k��,2.9,��
2022/10/08,11:10,0.555,0.793,0.511,0.994,0.682,0.329,0.574,0.544,�k�k��,2.3,��
2022/10/08,11:20,0.553,0.794,0.513,0.996,0.682,0.330,0.574,0.542,�k,3.6,��
2022/10/08,11:30,0.554,0.795,0.513,0.995,0.684,0.330,0.575,0.544,�k,3.9,��
2022/10/08,11:40,0.556,0.796,0.515,0.997,0.683,0.330,0.574,0.543,�k�k��,6.5,��
2022/10/08,11:50,0.555,0.796,0.514,0.997,0.685,0.331,0.574,0.545,�k�k��,6.3,��
2022/10/08,12:00,0.556,0.795,0.515,0.996,0.686,0.330,0.575,0.544,�k�k��,7.0,��
2022/10/08,12:10,0.557,0.793,0.515,0.997,0.685,0.330,0.574,0.545,�k�k��,6.6,��
2022/10/08,12:20,0.556,0.796,0.515,0.999,0.685,0.329,0.575,0.546,�k,5.6,��
2022/10/08,12:30,0.557,0.801,0.515,0.995,0.687,0.329,0.575,0.544,�k�k��,7.5,��
2022/10/08,12:40,0.557,0.799,0.515,0.998,0.686,0.329,0.576,0.545,�k�k��,7.4,��
2022/10/08,12:50,0.556,0.798,0.515,0.997,0.687,0.330,0.576,0.545,�k�k��,6.4,��
2022/10/08,13:00,0.558,0.798,0.513,0.999,0.689,0.329,0.574,0.545,�k�k��,8.2,��
2022/10/08,13:10,0.557,0.797,0.516,0.998,0.687,0.330,0.576,0.546,�k�k��,8.6,��
2022/10/08,13:20,0.557,0.799,0.515,0.997,0.688,0.330,0.574,0.545,�k�k��,8.2,��
2022/10/08,13:30,0.556,0.799,0.514,0.998,0.690,0.331,0.576,0.544,�k�k��,8.7,��
2022/10/08,13:40,0.557,0.800,0.515,1.000,0.689,0.330,0.576,0.545,�k�k��,8.1,��
2022/10/08,13:50,0.556,0.799,0.515,1.001,0.689,0.329,0.577,0.544,�k�k��,8.1,��
2022/10/08,14:00,0.557,0.800,0.516,0.999,0.690,0.330,0.576,0.545,�k�k��,6.9,��
2022/10/08,14:10,0.557,0.798,0.516,0.998,0.689,0.330,0.575,0.546,�k�k��,6.3,��
2022/10/08,14:20,0.557,0.799,0.516,0.999,0.691,0.331,0.576,0.546,�k�k��,5.4,��
2022/10/08,14:30,0.557,0.802,0.515,1.000,0.689,0.330,0.576,0.546,�k��,5.7,��
2022/10/08,14:40,0.558,0.800,0.515,0.999,0.689,0.329,0.576,0.545,�k��,6.0,��
2022/10/08,14:50,0.556,0.799,0.516,1.000,0.690,0.330,0.575,0.545,�k��,6.9,��
2022/10/08,15:00,0.558,0.799,0.516,1.000,0.690,0.330,0.576,0.545,�k��,5.9,��
2022/10/08,15:10,0.557,0.801,0.516,1.000,0.690,0.331,0.574,0.545,�k�k��,5.6,��
2022/10/08,15:20,0.555,0.800,0.515,1.000,0.688,0.330,0.575,0.546,�k��,5.0,��
2022/10/08,15:30,0.556,0.799,0.515,1.001,0.690,0.331,0.574,0.545,�k��,4.5,��
2022/10/08,15:40,0.557,0.800,0.515,1.000,0.689,0.331,0.576,0.544,�k��,3.7,��
2022/10/08,15:50,0.554,0.799,0.517,1.001,0.689,0.331,0.575,0.544,�k��,3.6,��
2022/10/08,16:00,0.555,0.800,0.515,1.000,0.690,0.331,0.576,0.547,�k�k��,3.8,��
2022/10/08,16:10,0.557,0.801,0.516,1.000,0.692,0.331,0.574,0.546,�k�k��,3.8,�L
2022/10/08,16:20,0.557,0.801,0.518,1.000,0.690,0.332,0.576,0.546,�k�k��,3.7,��
2022/10/08,16:30,0.559,0.800,0.519,1.000,0.690,0.331,0.576,0.546,�k�k��,3.1,��
2022/10/08,16:40,0.558,0.803,0.518,1.000,0.692,0.331,0.576,0.546,�k��,3.0,�L
2022/10/08,16:50,0.556,0.802,0.518,1.002,0.694,0.331,0.576,0.545,���k��,3.2,�L
2022/10/08,17:00,0.557,0.803,0.517,0.999,0.694,0.330,0.576,0.546,�k��,3.5,�L
2022/10/08,17:10,0.558,0.803,0.518,1.001,0.694,0.331,0.575,0.547,���k��,4.9,�L
2022/10/08,17:20,0.558,0.802,0.517,1.001,0.693,0.330,0.575,0.546,���k��,5.7,�L
2022/10/08,17:30,0.554,0.795,0.512,0.997,0.686,0.329,0.575,0.545,�k�k��,2.5,�L
2022/10/08,17:40,0.555,0.791,0.511,0.988,0.679,0.329,0.569,0.544,�쓌,5.0,�L
2022/10/08,17:50,0.553,0.787,0.511,0.987,0.680,0.329,0.567,0.536,���k��,1.9,�L
2022/10/08,18:00,0.552,0.786,0.510,0.987,0.679,0.329,0.567,0.537,�k��,5.0,�L
2022/10/08,18:10,0.552,0.774,0.506,0.979,0.672,0.328,0.566,0.536,�k�k��,4.6,�L
2022/10/08,18:20,0.549,0.768,0.506,0.959,0.659,0.331,0.564,0.535,�k�k��,10.0,�L
2022/10/08,18:30,0.546,0.772,0.510,0.962,0.667,0.332,0.563,0.536,�k,3.6,�L
2022/10/08,18:40,0.544,0.768,0.510,0.957,0.654,0.330,0.564,0.538,���k��,1.1,�L
2022/10/08,18:50,0.544,0.772,0.508,0.948,0.650,0.330,0.561,0.535,�k�k��,8.8,�L
2022/10/08,19:00,0.551,0.780,0.514,0.958,0.655,0.333,0.560,0.533,�k,5.5,�L
2022/10/08,19:10,0.551,0.784,0.515,0.966,0.659,0.334,0.563,0.535,�k,4.6,�L
2022/10/08,19:20,0.549,0.784,0.513,0.969,0.658,0.333,0.566,0.538,�k�k��,3.6,�L
2022/10/08,19:30,0.548,0.784,0.514,0.971,0.658,0.332,0.565,0.537,�k��,3.1,�L
2022/10/08,19:40,0.547,0.782,0.512,0.972,0.661,0.332,0.564,0.536,�k��,0.9,�L
2022/10/08,19:50,0.545,0.785,0.511,0.970,0.661,0.332,0.564,0.536,���k��,2.0,�L
2022/10/08,20:00,0.534,0.776,0.506,0.972,0.661,0.331,0.564,0.536,�k,2.3,�L
2022/10/08,20:10,0.533,0.766,0.501,0.964,0.656,0.331,0.562,0.533,���쓌,13.2,�L
2022/10/08,20:20,0.537,0.759,0.500,0.953,0.651,0.326,0.557,0.529,��,2.5,�L
2022/10/08,20:30,0.537,0.754,0.497,0.948,0.646,0.325,0.556,0.528,�k�k��,2.6,�L
2022/10/08,20:40,0.534,0.752,0.495,0.943,0.640,0.324,0.559,0.530,�k�k��,3.0,�L
2022/10/08,20:50,0.541,0.759,0.494,0.945,0.637,0.325,0.557,0.530,�k�k��,4.6,�L
2022/10/08,21:00,0.545,0.763,0.499,0.947,0.635,0.325,0.557,0.529,�k�k��,4.6,�L
2022/10/08,21:10,0.550,0.762,0.500,0.951,0.638,0.328,0.558,0.531,�k�k��,4.3,�L
2022/10/08,21:20,0.547,0.762,0.499,0.950,0.640,0.328,0.559,0.533,�k,3.6,�L
2022/10/08,21:30,0.541,0.756,0.496,0.941,0.633,0.328,0.558,0.534,�k�k��,5.2,�L
2022/10/08,21:40,0.540,0.756,0.497,0.943,0.632,0.327,0.557,0.531,���k��,4.2,�L
2022/10/08,21:50,0.534,0.751,0.494,0.937,0.633,0.327,0.557,0.532,�k��,4.5,�L
2022/10/08,22:00,0.539,0.754,0.494,0.936,0.630,0.327,0.557,0.534,���k��,2.0,�L
2022/10/08,22:10,0.543,0.762,0.496,0.943,0.631,0.326,0.554,0.532,�k��,4.1,�L
2022/10/08,22:20,0.543,0.762,0.498,0.948,0.632,0.327,0.555,0.532,�k��,3.9,�L
2022/10/08,22:30,0.544,0.763,0.500,0.948,0.634,0.328,0.558,0.530,���k��,4.9,�L
2022/10/08,22:40,0.544,0.762,0.499,0.953,0.636,0.330,0.560,0.532,�k��,5.5,�L
2022/10/08,22:50,0.541,0.762,0.500,0.952,0.634,0.329,0.558,0.534,�k��,5.5,�L
2022/10/08,23:00,0.538,0.762,0.499,0.952,0.635,0.328,0.559,0.534,�k��,5.6,�L
2022/10/08,23:10,0.540,0.763,0.500,0.954,0.637,0.328,0.561,0.534,�k��,5.0,�L
2022/10/08,23:20,0.540,0.763,0.499,0.953,0.636,0.328,0.561,0.535,���k��,6.3,�L
2022/10/08,23:30,0.538,0.756,0.500,0.956,0.636,0.326,0.559,0.536,�k��,6.8,�L
2022/10/08,23:40,0.539,0.759,0.498,0.952,0.638,0.326,0.561,0.537,�k��,5.5,�L
2022/10/08,23:50,0.539,0.761,0.499,0.953,0.638,0.325,0.560,0.536,�k��,6.1,�L
